Regional Weather Roundup
Issued by NWS

Home | Current Version | Previous Version | Graphics & Text | Print | Product List | Glossary On
Versions: 1 2 3 4 5 6 7 8 9 10 11 12 13 14 15 16 17 18 19 20 21 22 23 24 25 26 27 28 29 30 31 32 33 34 35 36 37 38 39 40 41 42 43 44 45 46 47 48 49 50
000
ASUS45 KCYS 271310
RWRWY

WYOMING REGIONAL WEATHER ROUNDUP
NATIONAL WEATHER SERVICE CHEYENNE WY
700 AM MDT MON JUL 27 2015

NOTE:  "FAIR" INDICATES FEW OR NO CLOUDS BELOW 12,000 FEET
WITH NO SIGNIFICANT WEATHER AND/OR OBSTRUCTIONS TO VISIBILITY.

WYZ001-271400-
YELLOWSTONE NATIONAL PARK

CITY           SKY/WX    TMP DP  RH WIND       PRES   REMARKS
LK YELLOWSTONE   N/A     40  35  83 W3        30.02F
W YELLOWSTONE  NOT AVBL

$$
WYZ002>013-054>058-071-098>099-271400-
NORTHERN WYOMING

CITY           SKY/WX    TMP DP  RH WIND       PRES   REMARKS
JACKSON        FAIR      43  39  87 N7        29.96R
CODY           FAIR      57  48  72 N13G20    29.90R
GREYBULL       FAIR      64  49  57 NW8       29.80S
WORLAND        FAIR      60  47  61 NE7       29.82R
SHERIDAN       FAIR      61  48  62 NW18G28   29.82R
BUFFALO        FAIR      65  44  46 NW6       29.87R
GILLETTE       FAIR      68  54  60 S22G31    29.80R
HULETT         FAIR      72  54  53 SW9       29.81R
NEWCASTLE      FAIR      70  52  52 MISG      29.89R

$$
WYZ014>020-022>026-101>103-271400-
CENTRAL WYOMING

CITY           SKY/WX    TMP DP  RH WIND       PRES   REMARKS
BIG PINEY      FAIR      45  29  53 E7        30.00S
PINEDALE       FAIR      50  34  53 CALM      30.01S
DUBOIS         FAIR      46  28  49 N7        29.99S
LANDER         FAIR      63  31  30 NW10      29.87R
RIVERTON       FAIR      65  34  31 SW7       29.88R
CASPER         PTSUNNY   69  45  41 S6        29.92S
DOUGLAS        FAIR      63  56  78 SE5       29.92R

$$
WYZ021-027>030-104>119-271400-
SOUTHERN WYOMING

CITY           SKY/WX    TMP DP  RH WIND       PRES   REMARKS
EVANSTON       FAIR      59  26  28 SW9       30.00R
KEMMERER       FAIR      61  25  25 S9G17     30.02R
FORT BRIDGER   SUNNY     63  28  27 S10       30.04R
ROCK SPRINGS   FAIR      66  41  40 VRB7      30.00S
DIXON          FAIR      56  43  61 SE3       30.08S
RAWLINS        CLOUDY    62  41  46 CALM      30.06R
SARATOGA       FAIR      61  37  41 S8        30.10R
LARAMIE        FAIR      57  44  62 S7        30.11R
CHEYENNE       FAIR      59  52  77 W10       30.02R
TORRINGTON     FAIR      61  59  93 SE9       29.88S
PINE BLUFFS    FAIR      55  55 100 CALM      29.98S

$$


USA.gov is the U.S. government's official web portal to all federal, state and local government web resources and services.